Location: Newark
(52.3500°N, 175.9667°E)
Time: 19:56:08
(UTC+00:00)

Explorer 7 - Visible Passes

Search period start: 17 April 2021 00:00
Search period end: 27 April 2021 00:00
Orbit: 484 x 677 km, 50.3° (Epoch: 17 April)

Date Brightness Start Highest point End Pass type
(mag) Time Alt. Az. Time Alt. Az. Time Alt. Az.
17 Apr 9.1 09:10:30 10° SSW 09:10:42 11° S 09:10:42 11° S visible
17 Apr 9.3 14:18:02 13° SE 14:18:02 13° SE 14:18:41 10° SE visible
17 Apr 8.8 15:54:27 15° SW 15:54:27 15° SW 15:56:38 10° S visible
18 Apr 7.9 09:14:19 10° SSW 09:17:12 27° SSE 09:17:12 27° SSE visible
19 Apr 7.4 09:18:21 10° SW 09:22:10 36° SSE 09:23:03 32° SE visible
19 Apr 8.8 10:58:06 10° WSW 10:59:25 20° WSW 10:59:25 20° WSW visible
20 Apr 7.1 09:22:32 10° SW 09:26:29 45° SSE 09:28:17 28° ESE visible
20 Apr 8.3 11:02:31 10° W 11:04:36 28° WSW 11:04:36 28° WSW visible
21 Apr 6.9 09:26:49 10° WSW 09:30:51 55° SSE 09:33:04 26° E visible
21 Apr 8.1 11:06:57 10° W 11:09:22 33° WSW 11:09:22 33° WSW visible
22 Apr 6.8 09:31:10 10° WSW 09:35:15 62° S 09:37:34 26° E visible
22 Apr 8.1 11:11:23 10° W 11:13:51 33° WSW 11:13:51 33° WSW visible
23 Apr 6.8 09:35:34 10° WSW 09:39:40 67° S 09:41:53 28° E visible
23 Apr 8.2 11:15:50 10° W 11:18:10 30° WSW 11:18:10 30° WSW visible
24 Apr 7.2 07:59:58 10° SW 08:03:48 47° SSE 08:07:54 10° E visible
24 Apr 6.8 09:39:58 10° W 09:44:05 68° S 09:46:06 30° ESE visible
24 Apr 8.4 11:20:18 10° W 11:22:23 26° WSW 11:22:23 26° WSW visible
25 Apr 7.0 08:04:15 10° WSW 08:08:10 56° SSE 08:12:22 10° E visible
25 Apr 6.9 09:44:24 10° W 09:48:30 65° S 09:50:15 34° ESE visible
25 Apr 8.7 11:24:48 10° W 11:26:31 21° WSW 11:26:31 21° WSW visible
26 Apr 6.9 08:08:36 10° WSW 08:12:34 63° S 08:16:48 10° E visible
26 Apr 7.0 09:48:50 10° W 09:52:54 58° SSW 09:54:21 37° SE visible
26 Apr 9.0 11:29:22 10° W 11:30:38 17° WSW 11:30:38 17° WSW visible
